RYR3258 EINN-EGBB

Flight info

Callsign RYR3258
Flight time 0h 55m
Altitude 33000
Route PELIG DCT BOFUM Q37 MALUD
Aircraft B738/M-SDE2E3FGHIRWXY/LB1

Departure

Time 2026-05-04 00:37
Airport Shannon Airport (EINN)

Arrival

Time 2026-05-04 01:32
Airport Birmingham Airport (EGBB)
Time Latitude Longitude Altitude Speed Heading
2026-05-04 00:25 52.69373 -8.92055 23 ft 0 kts 185°
2026-05-04 00:32 52.69394 -8.92052 23 ft 4 kts 185°
2026-05-04 00:32 52.69420 -8.92047 21 ft 4 kts 188°
2026-05-04 00:32 52.69447 -8.92038 25 ft 4 kts 202°
2026-05-04 00:32 52.69465 -8.92018 24 ft 4 kts 261°
2026-05-04 00:33 52.69466 -8.92009 23 ft 0 kts 283°
2026-05-04 00:35 52.69471 -8.92040 24 ft 8 kts 284°
2026-05-04 00:35 52.69492 -8.92161 22 ft 14 kts 289°
2026-05-04 00:35 52.69537 -8.92325 23 ft 16 kts 301°
2026-05-04 00:36 52.69617 -8.92470 21 ft 19 kts 315°
2026-05-04 00:36 52.69713 -8.92626 22 ft 20 kts 315°
2026-05-04 00:36 52.69811 -8.92784 23 ft 19 kts 315°
2026-05-04 00:36 52.69903 -8.92934 32 ft 15 kts 315°
2026-05-04 00:37 52.69979 -8.92953 34 ft 12 kts 39°
2026-05-04 00:37 52.70103 -8.92694 32 ft 70 kts 52°
2026-05-04 00:37 52.70596 -8.91651 29 ft 157 kts 53°
2026-05-04 00:37 52.71325 -8.90070 795 ft 177 kts 51°
2026-05-04 00:38 52.72193 -8.88641 2097 ft 177 kts 34°
2026-05-04 00:38 52.73355 -8.87749 2922 ft 195 kts 22°
2026-05-04 00:38 52.74720 -8.86911 3188 ft 224 kts 21°
2026-05-04 00:38 52.76261 -8.85933 3604 ft 246 kts 24°
2026-05-04 00:39 52.77883 -8.84795 4418 ft 255 kts 24°
2026-05-04 00:39 52.79513 -8.83633 5519 ft 256 kts 24°
2026-05-04 00:39 52.81154 -8.82462 6527 ft 259 kts 24°
2026-05-04 00:39 52.82827 -8.81271 7467 ft 263 kts 24°
2026-05-04 00:40 52.84526 -8.80063 8410 ft 267 kts 23°
2026-05-04 00:40 52.86242 -8.78845 9365 ft 271 kts 23°
2026-05-04 00:40 52.87988 -8.77606 10275 ft 275 kts 22°
2026-05-04 00:40 52.89814 -8.76311 10654 ft 299 kts 22°
2026-05-04 00:41 52.91816 -8.74890 10874 ft 325 kts 23°
2026-05-04 00:41 52.93940 -8.73382 11421 ft 338 kts 23°
2026-05-04 00:41 52.96097 -8.71849 12212 ft 342 kts 23°
2026-05-04 00:41 52.98294 -8.70286 13079 ft 346 kts 23°
2026-05-04 00:42 53.00517 -8.68702 13892 ft 351 kts 24°
2026-05-04 00:42 53.02778 -8.67090 14630 ft 355 kts 24°
2026-05-04 00:42 53.05050 -8.65468 15396 ft 358 kts 24°
2026-05-04 00:42 53.06537 -8.64407 15836 ft 362 kts 24°
2026-05-04 00:43 53.08863 -8.62743 16571 ft 365 kts 24°
2026-05-04 00:43 53.11206 -8.61066 17345 ft 368 kts 24°
2026-05-04 00:43 53.13395 -8.58847 18062 ft 372 kts 43°
2026-05-04 00:43 53.14966 -8.55438 18751 ft 375 kts 61°
2026-05-04 00:44 53.15854 -8.51350 19436 ft 379 kts 78°
2026-05-04 00:44 53.16126 -8.46960 20129 ft 381 kts 84°
2026-05-04 00:44 53.16291 -8.42534 20754 ft 385 kts 84°
2026-05-04 00:44 53.16433 -8.38060 21367 ft 388 kts 84°
2026-05-04 00:45 53.16575 -8.33567 21991 ft 390 kts 84°
2026-05-04 00:45 53.16726 -8.29029 22610 ft 392 kts 84°
2026-05-04 00:45 53.16885 -8.24479 23215 ft 395 kts 84°
2026-05-04 00:45 53.17051 -8.19889 23766 ft 397 kts 83°
2026-05-04 00:46 53.17219 -8.15329 24243 ft 400 kts 83°
2026-05-04 00:46 53.17392 -8.10637 24731 ft 402 kts 83°
2026-05-04 00:46 53.17560 -8.06049 25242 ft 402 kts 83°
2026-05-04 00:46 53.17730 -8.01389 25749 ft 403 kts 83°
2026-05-04 00:47 53.17898 -7.96722 26234 ft 405 kts 83°
2026-05-04 00:47 53.18066 -7.92025 26699 ft 406 kts 83°
2026-05-04 00:47 53.18232 -7.87312 27161 ft 407 kts 83°
2026-05-04 00:47 53.18396 -7.82600 27637 ft 408 kts 83°
2026-05-04 00:48 53.18557 -7.77888 28269 ft 404 kts 83°
2026-05-04 00:48 53.18714 -7.73238 28997 ft 399 kts 82°
2026-05-04 00:48 53.18867 -7.68647 29708 ft 394 kts 82°
2026-05-04 00:48 53.19018 -7.64093 30330 ft 391 kts 82°
2026-05-04 00:49 53.19167 -7.59578 30819 ft 389 kts 82°
2026-05-04 00:49 53.19315 -7.55064 31171 ft 391 kts 82°
2026-05-04 00:49 53.19462 -7.50526 31506 ft 393 kts 82°
2026-05-04 00:49 53.19608 -7.45982 31913 ft 393 kts 82°
2026-05-04 00:50 53.19750 -7.41438 32318 ft 392 kts 82°
2026-05-04 00:50 53.19892 -7.36889 32652 ft 394 kts 82°
2026-05-04 00:50 53.20217 -7.32361 32966 ft 392 kts 75°
2026-05-04 00:51 53.21777 -7.23625 33022 ft 395 kts 69°
2026-05-04 00:51 53.23473 -7.15008 33020 ft 388 kts 69°
2026-05-04 00:52 53.25149 -7.06371 33028 ft 393 kts 69°
2026-05-04 00:52 53.26819 -6.97631 33018 ft 397 kts 69°
2026-05-04 00:53 53.28476 -6.88873 33017 ft 398 kts 70°
2026-05-04 00:53 53.30136 -6.80044 33017 ft 398 kts 70°
2026-05-04 00:54 53.31785 -6.71231 33020 ft 395 kts 70°
2026-05-04 00:54 53.33418 -6.62464 33013 ft 394 kts 70°
2026-05-04 00:55 53.35037 -6.53735 33027 ft 393 kts 70°
2026-05-04 00:55 53.36654 -6.44982 33027 ft 393 kts 70°
2026-05-04 00:56 53.38267 -6.36201 33022 ft 394 kts 70°
2026-05-04 00:56 53.39877 -6.27399 33022 ft 395 kts 70°
2026-05-04 00:57 53.41480 -6.18590 33026 ft 396 kts 70°
2026-05-04 00:57 53.43075 -6.09785 33024 ft 398 kts 71°
2026-05-04 00:58 53.44683 -6.00865 33024 ft 400 kts 71°
2026-05-04 00:58 53.46293 -5.91888 33022 ft 403 kts 71°
2026-05-04 00:59 53.47904 -5.82860 33020 ft 404 kts 71°
2026-05-04 00:59 53.49513 -5.73793 33022 ft 405 kts 71°
2026-05-04 01:00 53.51114 -5.64740 33023 ft 404 kts 71°
2026-05-04 01:00 53.52438 -5.57211 33023 ft 404 kts 71°
2026-05-04 01:01 53.53634 -5.47991 33021 ft 406 kts 83°
2026-05-04 01:01 53.53492 -5.38472 33021 ft 408 kts 89°
2026-05-04 01:02 53.53220 -5.28976 33019 ft 406 kts 89°
2026-05-04 01:02 53.52986 -5.19481 33022 ft 406 kts 89°
2026-05-04 01:03 53.52728 -5.09994 33017 ft 407 kts 90°
2026-05-04 01:03 53.52411 -5.00526 33025 ft 409 kts 90°
2026-05-04 01:04 53.52090 -4.90939 33026 ft 412 kts 90°
2026-05-04 01:04 53.51765 -4.81317 33022 ft 414 kts 90°
2026-05-04 01:05 53.51435 -4.71641 33012 ft 415 kts 90°
2026-05-04 01:05 53.51098 -4.61954 33008 ft 416 kts 91°
2026-05-04 01:06 53.50752 -4.52238 33018 ft 417 kts 91°
2026-05-04 01:06 53.50397 -4.42496 33016 ft 418 kts 91°
2026-05-04 01:07 53.50034 -4.32740 33011 ft 419 kts 91°
2026-05-04 01:07 53.49662 -4.22974 33011 ft 419 kts 91°
2026-05-04 01:08 53.49282 -4.13188 32973 ft 420 kts 91°
2026-05-04 01:08 53.49090 -4.08273 32463 ft 422 kts 92°
2026-05-04 01:08 53.48894 -4.03369 31902 ft 420 kts 92°
2026-05-04 01:08 53.48690 -3.98551 31338 ft 419 kts 94°
2026-05-04 01:09 53.48182 -3.93709 30732 ft 421 kts 103°
2026-05-04 01:09 53.47254 -3.89045 30147 ft 422 kts 107°
2026-05-04 01:09 53.46258 -3.84415 29429 ft 422 kts 107°
2026-05-04 01:09 53.45268 -3.79817 28974 ft 415 kts 107°
2026-05-04 01:10 53.44309 -3.75284 28494 ft 410 kts 107°
2026-05-04 01:10 53.43376 -3.70803 28019 ft 404 kts 107°
2026-05-04 01:10 53.42456 -3.66371 27530 ft 400 kts 107°
2026-05-04 01:10 53.41521 -3.62001 27055 ft 397 kts 111°
2026-05-04 01:11 53.40042 -3.58117 26712 ft 394 kts 129°
2026-05-04 01:11 53.38223 -3.54700 26375 ft 396 kts 130°
2026-05-04 01:11 53.36353 -3.51219 26031 ft 406 kts 130°
2026-05-04 01:11 53.34461 -3.47681 25673 ft 409 kts 130°
2026-05-04 01:12 53.32582 -3.44144 25299 ft 404 kts 130°
2026-05-04 01:12 53.30752 -3.40682 24947 ft 400 kts 130°
2026-05-04 01:12 53.28919 -3.37205 24598 ft 396 kts 130°
2026-05-04 01:12 53.27104 -3.33761 24275 ft 393 kts 130°
2026-05-04 01:13 53.25299 -3.30338 23919 ft 391 kts 130°
2026-05-04 01:13 53.23508 -3.26945 23579 ft 389 kts 130°
2026-05-04 01:13 53.21719 -3.23563 23188 ft 387 kts 130°
2026-05-04 01:13 53.19945 -3.20216 22831 ft 385 kts 130°
2026-05-04 01:14 53.18297 -3.16731 22483 ft 381 kts 123°
2026-05-04 01:14 53.16876 -3.13015 22153 ft 379 kts 120°
2026-05-04 01:14 53.15526 -3.09265 21819 ft 377 kts 120°
2026-05-04 01:14 53.14178 -3.05536 21479 ft 376 kts 120°
2026-05-04 01:15 53.12807 -3.01820 21157 ft 375 kts 121°
2026-05-04 01:15 53.11430 -2.98154 20829 ft 374 kts 121°
2026-05-04 01:15 53.10060 -2.94548 20510 ft 373 kts 122°
2026-05-04 01:15 53.08667 -2.90900 20195 ft 372 kts 122°
2026-05-04 01:16 53.07265 -2.87278 19853 ft 373 kts 124°
2026-05-04 01:16 53.05760 -2.83751 19474 ft 374 kts 126°
2026-05-04 01:16 53.04204 -2.80288 19079 ft 374 kts 127°
2026-05-04 01:16 53.02642 -2.76853 18716 ft 372 kts 127°
2026-05-04 01:17 53.01094 -2.73443 18342 ft 368 kts 127°
2026-05-04 01:17 52.99560 -2.70048 17924 ft 365 kts 127°
2026-05-04 01:17 52.98048 -2.66689 17527 ft 362 kts 127°
2026-05-04 01:17 52.96554 -2.63361 17154 ft 358 kts 127°
2026-05-04 01:18 52.95075 -2.60065 16786 ft 355 kts 127°
2026-05-04 01:18 52.93605 -2.56789 16426 ft 352 kts 127°
2026-05-04 01:18 52.92148 -2.53548 16073 ft 349 kts 127°
2026-05-04 01:18 52.90702 -2.50330 15717 ft 347 kts 127°
2026-05-04 01:19 52.89263 -2.47136 15377 ft 345 kts 127°
2026-05-04 01:19 52.87831 -2.43960 15036 ft 345 kts 127°
2026-05-04 01:19 52.86388 -2.40761 14693 ft 347 kts 127°
2026-05-04 01:19 52.84958 -2.37596 14349 ft 348 kts 127°
2026-05-04 01:20 52.83353 -2.34640 13970 ft 345 kts 144°
2026-05-04 01:20 52.81305 -2.32623 13655 ft 341 kts 149°
2026-05-04 01:20 52.79325 -2.30502 13341 ft 338 kts 147°
2026-05-04 01:20 52.77382 -2.28317 12958 ft 337 kts 146°
2026-05-04 01:21 52.75455 -2.26130 12617 ft 336 kts 146°
2026-05-04 01:21 52.73539 -2.23945 12303 ft 334 kts 146°
2026-05-04 01:21 52.71620 -2.21816 12011 ft 332 kts 148°
2026-05-04 01:21 52.69708 -2.19729 11666 ft 326 kts 148°
2026-05-04 01:22 52.67876 -2.17731 11545 ft 306 kts 148°
2026-05-04 01:22 52.66153 -2.15855 11428 ft 288 kts 148°
2026-05-04 01:22 52.64507 -2.14069 11087 ft 281 kts 148°
2026-05-04 01:22 52.62879 -2.12297 10575 ft 281 kts 148°
2026-05-04 01:23 52.61248 -2.10523 10085 ft 280 kts 148°
2026-05-04 01:23 52.59629 -2.08772 9617 ft 278 kts 148°
2026-05-04 01:23 52.58020 -2.07032 9116 ft 276 kts 148°
2026-05-04 01:23 52.56418 -2.05310 8651 ft 273 kts 148°
2026-05-04 01:24 52.54830 -2.03605 8158 ft 272 kts 148°
2026-05-04 01:24 52.53245 -2.01895 7733 ft 274 kts 148°
2026-05-04 01:24 52.51665 -2.00189 7505 ft 270 kts 148°
2026-05-04 01:24 52.50120 -1.98518 7238 ft 268 kts 148°
2026-05-04 01:25 52.48576 -1.96846 7058 ft 262 kts 148°
2026-05-04 01:25 52.47046 -1.95190 6743 ft 263 kts 148°
2026-05-04 01:25 52.45542 -1.93562 6457 ft 262 kts 148°
2026-05-04 01:25 52.44024 -1.91921 6168 ft 261 kts 148°
2026-05-04 01:26 52.42507 -1.90279 5859 ft 261 kts 148°
2026-05-04 01:26 52.40976 -1.88623 5568 ft 260 kts 148°
2026-05-04 01:26 52.39490 -1.87021 5301 ft 259 kts 148°
2026-05-04 01:26 52.37981 -1.85405 5026 ft 258 kts 148°
2026-05-04 01:27 52.36481 -1.83800 4727 ft 258 kts 148°
2026-05-04 01:27 52.34980 -1.82197 4463 ft 257 kts 148°
2026-05-04 01:27 52.33484 -1.80615 4194 ft 255 kts 148°
2026-05-04 01:27 52.31996 -1.79040 4056 ft 252 kts 144°
2026-05-04 01:28 52.30947 -1.76884 4015 ft 240 kts 108°
2026-05-04 01:28 52.30941 -1.74303 4029 ft 224 kts 69°
2026-05-04 01:28 52.31660 -1.72078 3984 ft 220 kts 60°
2026-05-04 01:28 52.32405 -1.69906 3621 ft 220 kts 59°
2026-05-04 01:29 52.33226 -1.67736 3075 ft 226 kts 57°
2026-05-04 01:29 52.34064 -1.65586 2744 ft 221 kts 54°
2026-05-04 01:29 52.35205 -1.64066 2508 ft 209 kts 17°
2026-05-04 01:29 52.36575 -1.64230 2337 ft 197 kts 333°
2026-05-04 01:30 52.37502 -1.65753 2137 ft 184 kts 310°
2026-05-04 01:30 52.38437 -1.67056 1879 ft 171 kts 332°
2026-05-04 01:30 52.39401 -1.68104 1666 ft 161 kts 327°
2026-05-04 01:30 52.40266 -1.69094 1420 ft 148 kts 328°
2026-05-04 01:31 52.41102 -1.70028 1221 ft 141 kts 328°
2026-05-04 01:31 52.41904 -1.70923 1034 ft 143 kts 328°
2026-05-04 01:31 52.42732 -1.71852 822 ft 145 kts 328°
2026-05-04 01:31 52.43568 -1.72784 634 ft 146 kts 329°
2026-05-04 01:32 52.44415 -1.73730 417 ft 148 kts 328°
2026-05-04 01:32 52.45241 -1.74645 326 ft 133 kts 327°
2026-05-04 01:32 52.45888 -1.75362 317 ft 83 kts 326°
2026-05-04 01:32 52.46150 -1.75609 311 ft 20 kts 21°
2026-05-04 01:33 52.46218 -1.75450 303 ft 18 kts 82°
2026-05-04 01:33 52.46139 -1.75311 305 ft 17 kts 147°
2026-05-04 01:33 52.46039 -1.75201 304 ft 18 kts 144°
2026-05-04 01:33 52.45914 -1.75060 305 ft 23 kts 146°
2026-05-04 01:34 52.45785 -1.74915 309 ft 22 kts 146°
2026-05-04 01:34 52.45659 -1.74776 315 ft 22 kts 146°
2026-05-04 01:34 52.45539 -1.74646 322 ft 20 kts 147°
2026-05-04 01:34 52.45447 -1.74480 322 ft 20 kts 117°
2026-05-04 01:35 52.45386 -1.74283 322 ft 19 kts 117°
2026-05-04 01:35 52.45327 -1.74092 322 ft 17 kts 117°
2026-05-04 01:35 52.45324 -1.73955 322 ft 13 kts 57°
2026-05-04 01:35 52.45362 -1.73861 322 ft 8 kts 56°
2026-05-04 01:36 52.45392 -1.73786 321 ft 8 kts 56°
2026-05-04 01:36 52.45416 -1.73710 321 ft 7 kts 89°
2026-05-04 01:36 52.45382 -1.73661 321 ft 6 kts 148°
2026-05-04 01:36 52.45360 -1.73637 322 ft 2 kts 145°
2026-05-04 01:37 52.45354 -1.73630 322 ft 0 kts 145°
2026-05-04 01:38 52.45354 -1.73629 322 ft 0 kts 146°
2026-05-04 01:38 52.45354 -1.73630 322 ft 0 kts 146°